TimeMDT,TemperatureF,Dew PointF,Humidity,Sea Level PressureIn,VisibilityMPH,Wind Direction,Wind SpeedMPH,Gust SpeedMPH,PrecipitationIn,Events,Conditions,WindDirDegrees,DateUTC
12:15 AM,17.6,-0.4,45,29.95,10.0,West,10.4,28.8,N/A,,Clear,260,2013-03-18 06:15:00
12:35 AM,17.6,-0.4,45,29.94,10.0,West,20.7,33.4,N/A,,Clear,270,2013-03-18 06:35:00
12:55 AM,17.6,1.4,49,29.94,10.0,West,20.7,31.1,N/A,,Clear,270,2013-03-18 06:55:00
1:15 AM,17.6,1.4,49,29.95,10.0,West,21.9,32.2,N/A,,Clear,270,2013-03-18 07:15:00
1:35 AM,17.6,1.4,49,29.94,10.0,West,26.5,42.6,N/A,,Clear,260,2013-03-18 07:35:00
1:55 AM,17.6,1.4,49,29.93,10.0,West,25.3,38.0,N/A,,Clear,260,2013-03-18 07:55:00
2:15 AM,17.6,1.4,49,29.94,10.0,West,21.9,47.2,N/A,,Clear,260,2013-03-18 08:15:00
2:35 AM,17.6,1.4,49,29.94,10.0,West,20.7,34.5,N/A,,Clear,260,2013-03-18 08:35:00
2:55 AM,17.6,-0.4,45,29.94,10.0,West,23.0,36.8,N/A,,Clear,260,2013-03-18 08:55:00
3:15 AM,17.6,-0.4,45,29.94,10.0,West,20.7,41.4,N/A,,Clear,260,2013-03-18 09:15:00
3:35 AM,17.6,-0.4,45,29.94,10.0,West,20.7,28.8,N/A,,Clear,260,2013-03-18 09:35:00
4:15 AM,17.6,-0.4,45,29.94,10.0,WSW,16.1,25.3,N/A,,Clear,240,2013-03-18 10:15:00
4:35 AM,15.8,-0.4,49,29.94,10.0,SW,16.1,20.7,N/A,,Clear,230,2013-03-18 10:35:00
4:55 AM,14.0,1.4,57,29.94,10.0,SW,15.0,19.6,N/A,,Clear,220,2013-03-18 10:55:00
5:15 AM,14.0,1.4,57,29.93,10.0,SW,15.0,19.6,N/A,,Clear,220,2013-03-18 11:15:00
5:35 AM,14.0,1.4,57,29.93,10.0,SW,16.1,21.9,N/A,,Clear,230,2013-03-18 11:35:00
5:55 AM,12.2,1.4,62,29.93,10.0,SW,19.6,24.2,N/A,,Clear,230,2013-03-18 11:55:00
6:15 AM,12.2,1.4,62,29.93,10.0,SW,17.3,25.3,N/A,,Clear,230,2013-03-18 12:15:00
6:35 AM,12.2,1.4,62,29.93,10.0,SW,21.9,25.3,N/A,,Clear,230,2013-03-18 12:35:00
6:55 AM,12.2,1.4,62,29.93,10.0,SW,21.9,27.6,N/A,,Clear,230,2013-03-18 12:55:00
7:15 AM,12.2,1.4,62,29.94,10.0,SW,20.7,28.8,N/A,,Clear,230,2013-03-18 13:15:00
7:35 AM,12.2,1.4,62,29.94,10.0,SW,21.9,29.9,N/A,,Clear,230,2013-03-18 13:35:00
7:55 AM,12.2,3.2,67,29.95,10.0,SW,19.6,27.6,N/A,,Clear,230,2013-03-18 13:55:00
8:15 AM,12.2,1.4,62,29.97,10.0,SW,18.4,23.0,N/A,,Clear,230,2013-03-18 14:15:00
8:35 AM,14.0,3.2,62,29.98,10.0,SW,15.0,-,N/A,,Clear,220,2013-03-18 14:35:00
8:55 AM,15.8,3.2,58,29.98,10.0,SW,13.8,-,N/A,,Clear,220,2013-03-18 14:55:00
9:15 AM,15.8,3.2,58,29.99,10.0,SW,13.8,19.6,N/A,,Clear,230,2013-03-18 15:15:00
9:35 AM,17.6,3.2,53,29.99,10.0,WSW,19.6,28.8,N/A,,Clear,240,2013-03-18 15:35:00
9:55 AM,17.6,3.2,53,30.00,10.0,SW,19.6,28.8,N/A,,Clear,220,2013-03-18 15:55:00
10:15 AM,19.4,3.2,49,30.01,10.0,SW,15.0,27.6,N/A,,Clear,230,2013-03-18 16:15:00
10:35 AM,19.4,3.2,49,30.02,10.0,SW,15.0,21.9,N/A,,Clear,220,2013-03-18 16:35:00
10:55 AM,21.2,5.0,50,30.03,10.0,SW,18.4,-,N/A,,Clear,230,2013-03-18 16:55:00
11:15 AM,21.2,3.2,46,30.04,10.0,WSW,10.4,19.6,N/A,,Clear,240,2013-03-18 17:15:00
11:35 AM,23.0,3.2,43,30.04,10.0,WSW,10.4,19.6,N/A,,Clear,250,2013-03-18 17:35:00
11:55 AM,26.6,3.2,37,30.04,10.0,SSW,13.8,20.7,N/A,,Scattered Clouds,210,2013-03-18 17:55:00
12:14 PM,26.6,1.4,34,30.04,10.0,SSW,11.5,24.2,N/A,,Scattered Clouds,210,2013-03-18 18:14:00
12:35 PM,26.6,-0.4,31,30.04,10.0,WSW,16.1,32.2,N/A,,Scattered Clouds,240,2013-03-18 18:35:00
12:55 PM,26.6,1.4,34,30.03,10.0,WSW,16.1,27.6,N/A,,Scattered Clouds,250,2013-03-18 18:55:00
1:15 PM,26.6,-0.4,31,30.02,10.0,SW,26.5,38.0,N/A,,Scattered Clouds,220,2013-03-18 19:15:00
1:35 PM,26.6,-0.4,31,30.03,10.0,SSW,11.5,28.8,N/A,,Clear,210,2013-03-18 19:35:00
1:55 PM,26.6,-0.4,31,30.03,10.0,WSW,20.7,32.2,N/A,,Clear,240,2013-03-18 19:55:00
2:15 PM,28.4,-0.4,29,30.02,10.0,SW,26.5,32.2,N/A,,Clear,220,2013-03-18 20:15:00
2:35 PM,28.4,-0.4,29,30.02,10.0,SSW,21.9,38.0,N/A,,Clear,210,2013-03-18 20:35:00
2:55 PM,28.4,-0.4,29,30.02,10.0,SSW,18.4,27.6,N/A,,Clear,200,2013-03-18 20:55:00
3:15 PM,26.6,-0.4,31,30.02,10.0,SSW,18.4,31.1,N/A,,Scattered Clouds,210,2013-03-18 21:15:00
3:35 PM,28.4,-0.4,29,30.02,10.0,SW,17.3,33.4,N/A,,Clear,220,2013-03-18 21:35:00
3:55 PM,26.6,-0.4,31,30.02,10.0,SW,20.7,35.7,N/A,,Clear,220,2013-03-18 21:55:00
4:15 PM,28.4,-0.4,29,30.03,10.0,SSW,18.4,31.1,N/A,,Clear,210,2013-03-18 22:15:00
4:35 PM,28.4,-2.2,27,30.02,10.0,SW,24.2,33.4,N/A,,Clear,230,2013-03-18 22:35:00
4:55 PM,28.4,-4.0,25,30.02,10.0,SSW,15.0,35.7,N/A,,Clear,210,2013-03-18 22:55:00
5:15 PM,26.6,-2.2,29,30.02,10.0,SW,26.5,36.8,N/A,,Clear,220,2013-03-18 23:15:00
5:35 PM,26.6,-2.2,29,30.03,10.0,SW,26.5,34.5,N/A,,Clear,220,2013-03-18 23:35:00
5:55 PM,26.6,-4.0,26,30.04,10.0,SW,25.3,36.8,N/A,,Clear,230,2013-03-18 23:55:00
6:15 PM,26.6,-4.0,26,30.04,10.0,WSW,21.9,35.7,N/A,,Clear,240,2013-03-19 00:15:00
6:35 PM,24.8,-4.0,28,30.04,10.0,SW,23.0,40.3,N/A,,Clear,230,2013-03-19 00:35:00
6:55 PM,23.0,-2.2,33,30.05,10.0,SW,27.6,36.8,N/A,,Clear,220,2013-03-19 00:55:00
7:15 PM,23.0,-4.0,31,30.05,10.0,SW,21.9,33.4,N/A,,Clear,220,2013-03-19 01:15:00
7:35 PM,21.2,-4.0,33,30.05,10.0,SW,29.9,38.0,N/A,,Clear,230,2013-03-19 01:35:00
7:55 PM,21.2,-4.0,33,30.06,10.0,SW,25.3,36.8,N/A,,Clear,220,2013-03-19 01:55:00
8:15 PM,19.4,1.4,46,30.05,10.0,SW,33.4,41.4,N/A,,Clear,230,2013-03-19 02:15:00
8:35 PM,19.4,3.2,49,30.06,10.0,SW,32.2,46.0,N/A,,Clear,230,2013-03-19 02:35:00
8:55 PM,19.4,3.2,49,30.06,10.0,SW,27.6,42.6,N/A,,Clear,230,2013-03-19 02:55:00
9:15 PM,19.4,3.2,49,30.06,10.0,SW,29.9,40.3,N/A,,Clear,230,2013-03-19 03:15:00
9:35 PM,19.4,5.0,54,30.07,10.0,SW,27.6,36.8,N/A,,Clear,230,2013-03-19 03:35:00
10:15 PM,17.6,5.0,58,30.08,10.0,SW,29.9,36.8,N/A,,Clear,230,2013-03-19 04:15:00
10:35 PM,17.6,5.0,58,30.09,10.0,SW,32.2,40.3,N/A,,Clear,230,2013-03-19 04:35:00
10:55 PM,17.6,3.2,53,30.08,10.0,SW,33.4,42.6,N/A,,Clear,230,2013-03-19 04:55:00
11:15 PM,17.6,3.2,53,30.08,10.0,SW,36.8,40.3,N/A,,Clear,230,2013-03-19 05:15:00
11:35 PM,17.6,3.2,53,30.09,10.0,SW,27.6,35.7,N/A,,Clear,230,2013-03-19 05:35:00
11:55 PM,17.6,3.2,53,30.09,10.0,SW,27.6,35.7,N/A,,Clear,230,2013-03-19 05:55:00